Location: Sungai Anya
(2.6167°N, 114.0500°E)
Time: 18:27:32
(UTC+00:00)

Cosmos 405 Rocket - Pass Details

Date: 19 October 2021
Orbit: 488 x 551 km, 81.3° (Epoch: 07 December)

Event Time Altitude Azimuth Distance (km) Brightness Sun altitude
Rises 11:44:03 0° 342° (NNW) 2,700 6.5 -23.9°
Reaches altitude 10° 11:46:18 10° 334° (NNW) 1,815 5.6 -24.5°
Maximum altitude 11:50:01 38° 265° (W) 856 4.2 -25.4°
Drops below altitude 10° 11:53:46 10° 197° (SSW) 1,826 5.8 -26.3°
Sets 11:56:03 0° 189° (S) 2,719 6.6 -26.9°
